owner,sensor,date,latitude,longitude,vertical_datum,sea_water_practical_salinity,qcFlag 
COMPS,ioos:station:USF.COMPS:FHP:1,2014-10-01T00:00:00Z,28.1530,-82.8010,,25.396,1111122 
COMPS,ioos:station:USF.COMPS:FHP:1,2014-10-01T00:06:00Z,28.1530,-82.8010,,24.708,1111122 
COMPS,ioos:station:USF.COMPS:FHP:1,2014-10-01T00:12:00Z,28.1530,-82.8010,,24.436,1111122 
COMPS,ioos:station:USF.COMPS:FHP:1,2014-10-01T00:18:00Z,28.1530,-82.8010,,23.963,1111122 
COMPS,ioos:station:USF.COMPS:FHP:1,2014-10-01T00:24:00Z,28.1530,-82.8010,,24.016,1111122 
COMPS,ioos:station:USF.COMPS:FHP:1,2014-10-01T00:30:00Z,28.1530,-82.8010,,23.677,1111122 
COMPS,ioos:station:USF.COMPS:FHP:1,2014-10-01T00:36:00Z,28.1530,-82.8010,,23.279,1111122 
COMPS,ioos:station:USF.COMPS:FHP:1,2014-10-01T00:42:00Z,28.1530,-82.8010,,23.179,1111122 
COMPS,ioos:station:USF.COMPS:FHP:1,2014-10-01T00:48:00Z,28.1530,-82.8010,,23.201,1111122 
COMPS,ioos:station:USF.COMPS:FHP:1,2014-10-01T00:54:00Z,28.1530,-82.8010,,23.173,1111122 
COMPS,ioos:station:USF.COMPS:FHP:1,2014-10-01T01:00:00Z,28.1530,-82.8010,,23.149,1111122 
COMPS,ioos:station:USF.COMPS:FHP:1,2014-10-01T01:06:00Z,28.1530,-82.8010,,23.203,1111122 
COMPS,ioos:station:USF.COMPS:FHP:1,2014-10-01T01:12:00Z,28.1530,-82.8010,,23.189,1111122 
COMPS,ioos:station:USF.COMPS:FHP:1,2014-10-01T01:18:00Z,28.1530,-82.8010,,23.097,1111122 
COMPS,ioos:station:USF.COMPS:FHP:1,2014-10-01T01:24:00Z,28.1530,-82.8010,,23.128,1111122 
COMPS,ioos:station:USF.COMPS:FHP:1,2014-10-01T01:30:00Z,28.1530,-82.8010,,23.185,1111122 
COMPS,ioos:station:USF.COMPS:FHP:1,2014-10-01T01:36:00Z,28.1530,-82.8010,,23.175,1111122 
COMPS,ioos:station:USF.COMPS:FHP:1,2014-10-01T01:42:00Z,28.1530,-82.8010,,23.286,1111122 
COMPS,ioos:station:USF.COMPS:FHP:1,2014-10-01T01:48:00Z,28.1530,-82.8010,,23.186,1111122 
COMPS,ioos:station:USF.COMPS:FHP:1,2014-10-01T01:54:00Z,28.1530,-82.8010,,22.843,1111122 
COMPS,ioos:station:USF.COMPS:FHP:1,2014-10-01T02:00:00Z,28.1530,-82.8010,,23.133,1111122 
COMPS,ioos:station:USF.COMPS:FHP:1,2014-10-01T02:06:00Z,28.1530,-82.8010,,23.262,1111122 
COMPS,ioos:station:USF.COMPS:FHP:1,2014-10-01T02:12:00Z,28.1530,-82.8010,,23.23,1111122 
COMPS,ioos:station:USF.COMPS:FHP:1,2014-10-01T02:18:00Z,28.1530,-82.8010,,23.237,1111122 
COMPS,ioos:station:USF.COMPS:FHP:1,2014-10-01T02:24:00Z,28.1530,-82.8010,,23.101,1111122 
COMPS,ioos:station:USF.COMPS:FHP:1,2014-10-01T02:30:00Z,28.1530,-82.8010,,23.112,1111122 
COMPS,ioos:station:USF.COMPS:FHP:1,2014-10-01T02:36:00Z,28.1530,-82.8010,,22.972,1111122 
COMPS,ioos:station:USF.COMPS:FHP:1,2014-10-01T02:42:00Z,28.1530,-82.8010,,23.064,1111122 
COMPS,ioos:station:USF.COMPS:FHP:1,2014-10-01T02:48:00Z,28.1530,-82.8010,,23.2,1111122 
COMPS,ioos:station:USF.COMPS:FHP:1,2014-10-01T02:54:00Z,28.1530,-82.8010,,23.079,1111122 
COMPS,ioos:station:USF.COMPS:FHP:1,2014-10-01T03:00:00Z,28.1530,-82.8010,,22.637,1111122 
COMPS,ioos:station:USF.COMPS:FHP:1,2014-10-01T03:06:00Z,28.1530,-82.8010,,23.234,1111122 
COMPS,ioos:station:USF.COMPS:FHP:1,2014-10-01T03:12:00Z,28.1530,-82.8010,,23.192,1111122 
COMPS,ioos:station:USF.COMPS:FHP:1,2014-10-01T03:18:00Z,28.1530,-82.8010,,23.053,1111122 
COMPS,ioos:station:USF.COMPS:FHP:1,2014-10-01T03:24:00Z,28.1530,-82.8010,,23.153,1111122 
COMPS,ioos:station:USF.COMPS:FHP:1,2014-10-01T03:30:00Z,28.1530,-82.8010,,22.728,1111122 
COMPS,ioos:station:USF.COMPS:FHP:1,2014-10-01T03:36:00Z,28.1530,-82.8010,,22.65,1111122 
COMPS,ioos:station:USF.COMPS:FHP:1,2014-10-01T03:42:00Z,28.1530,-82.8010,,23.189,1111122 
COMPS,ioos:station:USF.COMPS:FHP:1,2014-10-01T03:48:00Z,28.1530,-82.8010,,23.346,1111122 
COMPS,ioos:station:USF.COMPS:FHP:1,2014-10-01T03:54:00Z,28.1530,-82.8010,,23.399,1111122 
COMPS,ioos:station:USF.COMPS:FHP:1,2014-10-01T04:00:00Z,28.1530,-82.8010,,23.507,1111122 
COMPS,ioos:station:USF.COMPS:FHP:1,2014-10-01T04:06:00Z,28.1530,-82.8010,,23.449,1111122 
COMPS,ioos:station:USF.COMPS:FHP:1,2014-10-01T04:12:00Z,28.1530,-82.8010,,23.617,1111122 
COMPS,ioos:station:USF.COMPS:FHP:1,2014-10-01T04:18:00Z,28.1530,-82.8010,,23.564,1111122 
COMPS,ioos:station:USF.COMPS:FHP:1,2014-10-01T04:24:00Z,28.1530,-82.8010,,23.623,1111122 
COMPS,ioos:station:USF.COMPS:FHP:1,2014-10-01T04:30:00Z,28.1530,-82.8010,,23.725,1111122 
COMPS,ioos:station:USF.COMPS:FHP:1,2014-10-01T04:36:00Z,28.1530,-82.8010,,23.702,1111122 
COMPS,ioos:station:USF.COMPS:FHP:1,2014-10-01T04:42:00Z,28.1530,-82.8010,,22.99,1111122 
COMPS,ioos:station:USF.COMPS:FHP:1,2014-10-01T04:48:00Z,28.1530,-82.8010,,23.202,1111122 
COMPS,ioos:station:USF.COMPS:FHP:1,2014-10-01T04:54:00Z,28.1530,-82.8010,,23.954,1111122 
COMPS,ioos:station:USF.COMPS:FHP:1,2014-10-01T05:00:00Z,28.1530,-82.8010,,23.876,1111122 
COMPS,ioos:station:USF.COMPS:FHP:1,2014-10-01T05:06:00Z,28.1530,-82.8010,,24.747,1111122 
COMPS,ioos:station:USF.COMPS:FHP:1,2014-10-01T05:12:00Z,28.1530,-82.8010,,23.766,1111122 
COMPS,ioos:station:USF.COMPS:FHP:1,2014-10-01T05:18:00Z,28.1530,-82.8010,,24.403,1111122 
COMPS,ioos:station:USF.COMPS:FHP:1,2014-10-01T05:24:00Z,28.1530,-82.8010,,24.729,1111122 
COMPS,ioos:station:USF.COMPS:FHP:1,2014-10-01T05:30:00Z,28.1530,-82.8010,,26.46,1111122 
COMPS,ioos:station:USF.COMPS:FHP:1,2014-10-01T05:36:00Z,28.1530,-82.8010,,27.183,1111122 
COMPS,ioos:station:USF.COMPS:FHP:1,2014-10-01T05:42:00Z,28.1530,-82.8010,,27.943,1111122 
COMPS,ioos:station:USF.COMPS:FHP:1,2014-10-01T05:48:00Z,28.1530,-82.8010,,28.081,1111122 
COMPS,ioos:station:USF.COMPS:FHP:1,2014-10-01T05:54:00Z,28.1530,-82.8010,,27.83,1111122 
COMPS,ioos:station:USF.COMPS:FHP:1,2014-10-01T06:00:00Z,28.1530,-82.8010,,28.07,1111122 
COMPS,ioos:station:USF.COMPS:FHP:1,2014-10-01T06:06:00Z,28.1530,-82.8010,,28.161,1111122 
COMPS,ioos:station:USF.COMPS:FHP:1,2014-10-01T06:12:00Z,28.1530,-82.8010,,28.393,1111122 
COMPS,ioos:station:USF.COMPS:FHP:1,2014-10-01T06:18:00Z,28.1530,-82.8010,,28.534,1111122 
COMPS,ioos:station:USF.COMPS:FHP:1,2014-10-01T06:24:00Z,28.1530,-82.8010,,28.596,1111122 
COMPS,ioos:station:USF.COMPS:FHP:1,2014-10-01T06:30:00Z,28.1530,-82.8010,,28.701,1111122 
COMPS,ioos:station:USF.COMPS:FHP:1,2014-10-01T06:36:00Z,28.1530,-82.8010,,28.794,1111122 
COMPS,ioos:station:USF.COMPS:FHP:1,2014-10-01T06:42:00Z,28.1530,-82.8010,,28.857,1111122 
COMPS,ioos:station:USF.COMPS:FHP:1,2014-10-01T06:48:00Z,28.1530,-82.8010,,28.889,1111122 
COMPS,ioos:station:USF.COMPS:FHP:1,2014-10-01T06:54:00Z,28.1530,-82.8010,,28.944,1111122 
COMPS,ioos:station:USF.COMPS:FHP:1,2014-10-01T07:00:00Z,28.1530,-82.8010,,29.001,1111122 
COMPS,ioos:station:USF.COMPS:FHP:1,2014-10-01T07:06:00Z,28.1530,-82.8010,,29.042,1111122 
COMPS,ioos:station:USF.COMPS:FHP:1,2014-10-01T07:12:00Z,28.1530,-82.8010,,29.137,1111122 
COMPS,ioos:station:USF.COMPS:FHP:1,2014-10-01T07:18:00Z,28.1530,-82.8010,,29.205,1111122 
COMPS,ioos:station:USF.COMPS:FHP:1,2014-10-01T07:24:00Z,28.1530,-82.8010,,29.236,1111122 
COMPS,ioos:station:USF.COMPS:FHP:1,2014-10-01T07:30:00Z,28.1530,-82.8010,,29.248,1111122 
COMPS,ioos:station:USF.COMPS:FHP:1,2014-10-01T07:36:00Z,28.1530,-82.8010,,29.107,1111122 
COMPS,ioos:station:USF.COMPS:FHP:1,2014-10-01T07:42:00Z,28.1530,-82.8010,,29.211,1111122 
COMPS,ioos:station:USF.COMPS:FHP:1,2014-10-01T07:48:00Z,28.1530,-82.8010,,29.211,1111122 
COMPS,ioos:station:USF.COMPS:FHP:1,2014-10-01T07:54:00Z,28.1530,-82.8010,,29.28,1111122 
COMPS,ioos:station:USF.COMPS:FHP:1,2014-10-01T08:00:00Z,28.1530,-82.8010,,29.353,1111122 
COMPS,ioos:station:USF.COMPS:FHP:1,2014-10-01T08:06:00Z,28.1530,-82.8010,,29.304,1111122 
COMPS,ioos:station:USF.COMPS:FHP:1,2014-10-01T08:12:00Z,28.1530,-82.8010,,29.29,1111122 
COMPS,ioos:station:USF.COMPS:FHP:1,2014-10-01T08:18:00Z,28.1530,-82.8010,,29.201,1111122 
COMPS,ioos:station:USF.COMPS:FHP:1,2014-10-01T08:24:00Z,28.1530,-82.8010,,29.265,1111122 
COMPS,ioos:station:USF.COMPS:FHP:1,2014-10-01T08:30:00Z,28.1530,-82.8010,,29.261,1111122 
COMPS,ioos:station:USF.COMPS:FHP:1,2014-10-01T08:36:00Z,28.1530,-82.8010,,29.326,1111122 
COMPS,ioos:station:USF.COMPS:FHP:1,2014-10-01T08:42:00Z,28.1530,-82.8010,,29.428,1111122 
COMPS,ioos:station:USF.COMPS:FHP:1,2014-10-01T08:48:00Z,28.1530,-82.8010,,29.51,1111122 
COMPS,ioos:station:USF.COMPS:FHP:1,2014-10-01T08:54:00Z,28.1530,-82.8010,,29.625,1111122 
COMPS,ioos:station:USF.COMPS:FHP:1,2014-10-01T09:00:00Z,28.1530,-82.8010,,29.724,1111122 
COMPS,ioos:station:USF.COMPS:FHP:1,2014-10-01T09:06:00Z,28.1530,-82.8010,,29.8,1111122 
COMPS,ioos:station:USF.COMPS:FHP:1,2014-10-01T09:12:00Z,28.1530,-82.8010,,29.887,1111122 
COMPS,ioos:station:USF.COMPS:FHP:1,2014-10-01T09:18:00Z,28.1530,-82.8010,,29.641,1111122 
COMPS,ioos:station:USF.COMPS:FHP:1,2014-10-01T09:24:00Z,28.1530,-82.8010,,29.966,1111122 
COMPS,ioos:station:USF.COMPS:FHP:1,2014-10-01T09:30:00Z,28.1530,-82.8010,,30.001,1111122 
COMPS,ioos:station:USF.COMPS:FHP:1,2014-10-01T09:36:00Z,28.1530,-82.8010,,30.067,1111122 
COMPS,ioos:station:USF.COMPS:FHP:1,2014-10-01T09:42:00Z,28.1530,-82.8010,,30.107,1111122 
COMPS,ioos:station:USF.COMPS:FHP:1,2014-10-01T09:48:00Z,28.1530,-82.8010,,30.057,1111122 
COMPS,ioos:station:USF.COMPS:FHP:1,2014-10-01T09:54:00Z,28.1530,-82.8010,,30.177,1111122 
COMPS,ioos:station:USF.COMPS:FHP:1,2014-10-01T10:00:00Z,28.1530,-82.8010,,30.229,1111122 
COMPS,ioos:station:USF.COMPS:FHP:1,2014-10-01T10:06:00Z,28.1530,-82.8010,,30.259,1111122 
COMPS,ioos:station:USF.COMPS:FHP:1,2014-10-01T10:12:00Z,28.1530,-82.8010,,30.277,1111122 
COMPS,ioos:station:USF.COMPS:FHP:1,2014-10-01T10:18:00Z,28.1530,-82.8010,,30.298,1111122 
COMPS,ioos:station:USF.COMPS:FHP:1,2014-10-01T10:24:00Z,28.1530,-82.8010,,30.31,1111122 
COMPS,ioos:station:USF.COMPS:FHP:1,2014-10-01T10:30:00Z,28.1530,-82.8010,,30.298,1111122 
COMPS,ioos:station:USF.COMPS:FHP:1,2014-10-01T10:36:00Z,28.1530,-82.8010,,30.29,1111122 
COMPS,ioos:station:USF.COMPS:FHP:1,2014-10-01T10:42:00Z,28.1530,-82.8010,,30.281,1111122 
COMPS,ioos:station:USF.COMPS:FHP:1,2014-10-01T10:48:00Z,28.1530,-82.8010,,30.259,1111122 
COMPS,ioos:station:USF.COMPS:FHP:1,2014-10-01T10:54:00Z,28.1530,-82.8010,,30.25,1111122 
COMPS,ioos:station:USF.COMPS:FHP:1,2014-10-01T11:00:00Z,28.1530,-82.8010,,30.22,1111122 
COMPS,ioos:station:USF.COMPS:FHP:1,2014-10-01T11:06:00Z,28.1530,-82.8010,,30.127,1111122 
COMPS,ioos:station:USF.COMPS:FHP:1,2014-10-01T11:12:00Z,28.1530,-82.8010,,29.882,1111122 
COMPS,ioos:station:USF.COMPS:FHP:1,2014-10-01T11:18:00Z,28.1530,-82.8010,,30.069,1111122 
COMPS,ioos:station:USF.COMPS:FHP:1,2014-10-01T11:24:00Z,28.1530,-82.8010,,30.055,1111122 
COMPS,ioos:station:USF.COMPS:FHP:1,2014-10-01T11:30:00Z,28.1530,-82.8010,,30.006,1111122 
COMPS,ioos:station:USF.COMPS:FHP:1,2014-10-01T11:36:00Z,28.1530,-82.8010,,29.824,1111122 
COMPS,ioos:station:USF.COMPS:FHP:1,2014-10-01T11:42:00Z,28.1530,-82.8010,,29.547,1111122 
COMPS,ioos:station:USF.COMPS:FHP:1,2014-10-01T11:48:00Z,28.1530,-82.8010,,29.353,1111122 
COMPS,ioos:station:USF.COMPS:FHP:1,2014-10-01T11:54:00Z,28.1530,-82.8010,,29.306,1111122 
COMPS,ioos:station:USF.COMPS:FHP:1,2014-10-01T12:00:00Z,28.1530,-82.8010,,29.26,1111122 
COMPS,ioos:station:USF.COMPS:FHP:1,2014-10-01T12:06:00Z,28.1530,-82.8010,,28.952,1111122 
COMPS,ioos:station:USF.COMPS:FHP:1,2014-10-01T12:12:00Z,28.1530,-82.8010,,26.361,1111122 
COMPS,ioos:station:USF.COMPS:FHP:1,2014-10-01T12:18:00Z,28.1530,-82.8010,,25.391,1111122 
COMPS,ioos:station:USF.COMPS:FHP:1,2014-10-01T12:24:00Z,28.1530,-82.8010,,24.666,1111122 
COMPS,ioos:station:USF.COMPS:FHP:1,2014-10-01T12:30:00Z,28.1530,-82.8010,,24.266,1111122 
COMPS,ioos:station:USF.COMPS:FHP:1,2014-10-01T12:36:00Z,28.1530,-82.8010,,24.155,1111122 
COMPS,ioos:station:USF.COMPS:FHP:1,2014-10-01T12:42:00Z,28.1530,-82.8010,,23.99,1111122 
COMPS,ioos:station:USF.COMPS:FHP:1,2014-10-01T12:48:00Z,28.1530,-82.8010,,23.935,1111122 
COMPS,ioos:station:USF.COMPS:FHP:1,2014-10-01T12:54:00Z,28.1530,-82.8010,,23.876,1111122 
COMPS,ioos:station:USF.COMPS:FHP:1,2014-10-01T13:00:00Z,28.1530,-82.8010,,23.871,1111122 
COMPS,ioos:station:USF.COMPS:FHP:1,2014-10-01T13:06:00Z,28.1530,-82.8010,,23.793,1111122 
COMPS,ioos:station:USF.COMPS:FHP:1,2014-10-01T13:12:00Z,28.1530,-82.8010,,23.703,1111122 
COMPS,ioos:station:USF.COMPS:FHP:1,2014-10-01T13:18:00Z,28.1530,-82.8010,,23.645,1111122 
COMPS,ioos:station:USF.COMPS:FHP:1,2014-10-01T13:24:00Z,28.1530,-82.8010,,23.598,1111122 
COMPS,ioos:station:USF.COMPS:FHP:1,2014-10-01T13:30:00Z,28.1530,-82.8010,,23.572,1111122 
COMPS,ioos:station:USF.COMPS:FHP:1,2014-10-01T13:36:00Z,28.1530,-82.8010,,23.541,1111122 
COMPS,ioos:station:USF.COMPS:FHP:1,2014-10-01T13:42:00Z,28.1530,-82.8010,,23.51,1111122 
COMPS,ioos:station:USF.COMPS:FHP:1,2014-10-01T13:48:00Z,28.1530,-82.8010,,23.477,1111122 
COMPS,ioos:station:USF.COMPS:FHP:1,2014-10-01T13:54:00Z,28.1530,-82.8010,,23.442,1111122 
COMPS,ioos:station:USF.COMPS:FHP:1,2014-10-01T14:00:00Z,28.1530,-82.8010,,23.416,1111122 
COMPS,ioos:station:USF.COMPS:FHP:1,2014-10-01T14:06:00Z,28.1530,-82.8010,,23.396,1111122 
COMPS,ioos:station:USF.COMPS:FHP:1,2014-10-01T14:12:00Z,28.1530,-82.8010,,23.385,1111122 
COMPS,ioos:station:USF.COMPS:FHP:1,2014-10-01T14:18:00Z,28.1530,-82.8010,,23.365,1111122 
COMPS,ioos:station:USF.COMPS:FHP:1,2014-10-01T14:24:00Z,28.1530,-82.8010,,23.36,1111122 
COMPS,ioos:station:USF.COMPS:FHP:1,2014-10-01T14:30:00Z,28.1530,-82.8010,,23.313,1111122 
COMPS,ioos:station:USF.COMPS:FHP:1,2014-10-01T14:36:00Z,28.1530,-82.8010,,23.272,1111122 
COMPS,ioos:station:USF.COMPS:FHP:1,2014-10-01T14:42:00Z,28.1530,-82.8010,,22.866,1111122 
COMPS,ioos:station:USF.COMPS:FHP:1,2014-10-01T14:48:00Z,28.1530,-82.8010,,22.282,1111122 
COMPS,ioos:station:USF.COMPS:FHP:1,2014-10-01T14:54:00Z,28.1530,-82.8010,,21.326,1111122 
COMPS,ioos:station:USF.COMPS:FHP:1,2014-10-01T15:00:00Z,28.1530,-82.8010,,20.323,1111122 
COMPS,ioos:station:USF.COMPS:FHP:1,2014-10-01T15:06:00Z,28.1530,-82.8010,,8.14,1111122 
COMPS,ioos:station:USF.COMPS:FHP:1,2014-10-01T17:42:00Z,28.1530,-82.8010,,14.811,1111122 
COMPS,ioos:station:USF.COMPS:FHP:1,2014-10-01T17:48:00Z,28.1530,-82.8010,,21.068,1111122 
COMPS,ioos:station:USF.COMPS:FHP:1,2014-10-01T17:54:00Z,28.1530,-82.8010,,21.814,1111122 
COMPS,ioos:station:USF.COMPS:FHP:1,2014-10-01T18:00:00Z,28.1530,-82.8010,,22.753,1111122 
COMPS,ioos:station:USF.COMPS:FHP:1,2014-10-01T18:06:00Z,28.1530,-82.8010,,23.568,1111122 
COMPS,ioos:station:USF.COMPS:FHP:1,2014-10-01T18:12:00Z,28.1530,-82.8010,,23.491,1111122 
COMPS,ioos:station:USF.COMPS:FHP:1,2014-10-01T18:18:00Z,28.1530,-82.8010,,23.507,1111122 
COMPS,ioos:station:USF.COMPS:FHP:1,2014-10-01T18:24:00Z,28.1530,-82.8010,,23.499,1111122 
COMPS,ioos:station:USF.COMPS:FHP:1,2014-10-01T18:30:00Z,28.1530,-82.8010,,23.581,1111122 
COMPS,ioos:station:USF.COMPS:FHP:1,2014-10-01T18:36:00Z,28.1530,-82.8010,,23.611,1111122 
COMPS,ioos:station:USF.COMPS:FHP:1,2014-10-01T18:42:00Z,28.1530,-82.8010,,23.628,1111122 
COMPS,ioos:station:USF.COMPS:FHP:1,2014-10-01T18:48:00Z,28.1530,-82.8010,,23.668,1111122 
COMPS,ioos:station:USF.COMPS:FHP:1,2014-10-01T18:54:00Z,28.1530,-82.8010,,23.71,1111122 
COMPS,ioos:station:USF.COMPS:FHP:1,2014-10-01T19:00:00Z,28.1530,-82.8010,,23.747,1111122 
COMPS,ioos:station:USF.COMPS:FHP:1,2014-10-01T19:06:00Z,28.1530,-82.8010,,23.785,1111122 
COMPS,ioos:station:USF.COMPS:FHP:1,2014-10-01T19:12:00Z,28.1530,-82.8010,,23.76,1111122 
COMPS,ioos:station:USF.COMPS:FHP:1,2014-10-01T19:18:00Z,28.1530,-82.8010,,23.759,1111122 
COMPS,ioos:station:USF.COMPS:FHP:1,2014-10-01T19:24:00Z,28.1530,-82.8010,,23.824,1111122 
COMPS,ioos:station:USF.COMPS:FHP:1,2014-10-01T19:30:00Z,28.1530,-82.8010,,23.64,1111122 
COMPS,ioos:station:USF.COMPS:FHP:1,2014-10-01T19:36:00Z,28.1530,-82.8010,,23.597,1111122 
COMPS,ioos:station:USF.COMPS:FHP:1,2014-10-01T19:42:00Z,28.1530,-82.8010,,23.59,1111122 
COMPS,ioos:station:USF.COMPS:FHP:1,2014-10-01T19:48:00Z,28.1530,-82.8010,,23.566,1111122 
COMPS,ioos:station:USF.COMPS:FHP:1,2014-10-01T19:54:00Z,28.1530,-82.8010,,23.55,1111122 
COMPS,ioos:station:USF.COMPS:FHP:1,2014-10-01T20:00:00Z,28.1530,-82.8010,,23.613,1111122 
COMPS,ioos:station:USF.COMPS:FHP:1,2014-10-01T20:06:00Z,28.1530,-82.8010,,23.613,1111122 
COMPS,ioos:station:USF.COMPS:FHP:1,2014-10-01T20:12:00Z,28.1530,-82.8010,,23.693,1111122 
COMPS,ioos:station:USF.COMPS:FHP:1,2014-10-01T20:18:00Z,28.1530,-82.8010,,23.886,1111122 
COMPS,ioos:station:USF.COMPS:FHP:1,2014-10-01T20:24:00Z,28.1530,-82.8010,,23.887,1111122 
COMPS,ioos:station:USF.COMPS:FHP:1,2014-10-01T20:30:00Z,28.1530,-82.8010,,23.93,1111122 
COMPS,ioos:station:USF.COMPS:FHP:1,2014-10-01T20:36:00Z,28.1530,-82.8010,,24.139,1111122 
COMPS,ioos:station:USF.COMPS:FHP:1,2014-10-01T20:42:00Z,28.1530,-82.8010,,24.183,1111122 
COMPS,ioos:station:USF.COMPS:FHP:1,2014-10-01T20:48:00Z,28.1530,-82.8010,,24.439,1111122 
COMPS,ioos:station:USF.COMPS:FHP:1,2014-10-01T20:54:00Z,28.1530,-82.8010,,24.898,1111122 
COMPS,ioos:station:USF.COMPS:FHP:1,2014-10-01T21:00:00Z,28.1530,-82.8010,,25.584,1111122 
COMPS,ioos:station:USF.COMPS:FHP:1,2014-10-01T21:06:00Z,28.1530,-82.8010,,26.592,1111122 
COMPS,ioos:station:USF.COMPS:FHP:1,2014-10-01T21:12:00Z,28.1530,-82.8010,,28.984,1111122 
COMPS,ioos:station:USF.COMPS:FHP:1,2014-10-01T21:18:00Z,28.1530,-82.8010,,29.506,1111122 
COMPS,ioos:station:USF.COMPS:FHP:1,2014-10-01T21:24:00Z,28.1530,-82.8010,,29.712,1111122 
COMPS,ioos:station:USF.COMPS:FHP:1,2014-10-01T21:30:00Z,28.1530,-82.8010,,29.799,1111122 
COMPS,ioos:station:USF.COMPS:FHP:1,2014-10-01T21:36:00Z,28.1530,-82.8010,,29.858,1111122 
COMPS,ioos:station:USF.COMPS:FHP:1,2014-10-01T21:42:00Z,28.1530,-82.8010,,28.607,1111122 
COMPS,ioos:station:USF.COMPS:FHP:1,2014-10-01T21:48:00Z,28.1530,-82.8010,,29.834,1111122 
COMPS,ioos:station:USF.COMPS:FHP:1,2014-10-01T21:54:00Z,28.1530,-82.8010,,29.846,1111122 
COMPS,ioos:station:USF.COMPS:FHP:1,2014-10-01T22:00:00Z,28.1530,-82.8010,,29.814,1111122 
COMPS,ioos:station:USF.COMPS:FHP:1,2014-10-01T22:06:00Z,28.1530,-82.8010,,29.818,1111122 
COMPS,ioos:station:USF.COMPS:FHP:1,2014-10-01T22:12:00Z,28.1530,-82.8010,,29.799,1111122 
COMPS,ioos:station:USF.COMPS:FHP:1,2014-10-01T22:18:00Z,28.1530,-82.8010,,29.716,1111122 
COMPS,ioos:station:USF.COMPS:FHP:1,2014-10-01T22:24:00Z,28.1530,-82.8010,,29.724,1111122 
COMPS,ioos:station:USF.COMPS:FHP:1,2014-10-01T22:30:00Z,28.1530,-82.8010,,29.707,1111122 
COMPS,ioos:station:USF.COMPS:FHP:1,2014-10-01T22:36:00Z,28.1530,-82.8010,,29.655,1111122 
COMPS,ioos:station:USF.COMPS:FHP:1,2014-10-01T22:42:00Z,28.1530,-82.8010,,29.709,1111122 
COMPS,ioos:station:USF.COMPS:FHP:1,2014-10-01T22:48:00Z,28.1530,-82.8010,,29.715,1111122 
COMPS,ioos:station:USF.COMPS:FHP:1,2014-10-01T22:54:00Z,28.1530,-82.8010,,29.675,1111122 
COMPS,ioos:station:USF.COMPS:FHP:1,2014-10-01T23:00:00Z,28.1530,-82.8010,,29.683,1111122 
COMPS,ioos:station:USF.COMPS:FHP:1,2014-10-01T23:06:00Z,28.1530,-82.8010,,29.661,1111122 
COMPS,ioos:station:USF.COMPS:FHP:1,2014-10-01T23:12:00Z,28.1530,-82.8010,,29.608,1111122 
COMPS,ioos:station:USF.COMPS:FHP:1,2014-10-01T23:18:00Z,28.1530,-82.8010,,29.63,1111122 
COMPS,ioos:station:USF.COMPS:FHP:1,2014-10-01T23:24:00Z,28.1530,-82.8010,,29.647,1111122 
COMPS,ioos:station:USF.COMPS:FHP:1,2014-10-01T23:30:00Z,28.1530,-82.8010,,29.665,1111122 
COMPS,ioos:station:USF.COMPS:FHP:1,2014-10-01T23:36:00Z,28.1530,-82.8010,,29.684,1111122 
COMPS,ioos:station:USF.COMPS:FHP:1,2014-10-01T23:42:00Z,28.1530,-82.8010,,29.711,1111122 
COMPS,ioos:station:USF.COMPS:FHP:1,2014-10-01T23:48:00Z,28.1530,-82.8010,,29.775,1111122 
COMPS,ioos:station:USF.COMPS:FHP:1,2014-10-01T23:54:00Z,28.1530,-82.8010,,29.748,1111122 
COMPS,ioos:station:USF.COMPS:FHP:1,2014-10-02T00:00:00Z,28.1530,-82.8010,,29.678,1111122 
COMPS,ioos:station:USF.COMPS:FHP:1,2014-10-02T00:06:00Z,28.1530,-82.8010,,29.703,1111122 
COMPS,ioos:station:USF.COMPS:FHP:1,2014-10-02T00:12:00Z,28.1530,-82.8010,,28.898,1111122 
COMPS,ioos:station:USF.COMPS:FHP:1,2014-10-02T00:18:00Z,28.1530,-82.8010,,28.332,1111122 
COMPS,ioos:station:USF.COMPS:FHP:1,2014-10-02T00:24:00Z,28.1530,-82.8010,,28.669,1111122 
COMPS,ioos:station:USF.COMPS:FHP:1,2014-10-02T00:30:00Z,28.1530,-82.8010,,28.597,1111122 
COMPS,ioos:station:USF.COMPS:FHP:1,2014-10-02T00:36:00Z,28.1530,-82.8010,,28.974,1111122 
COMPS,ioos:station:USF.COMPS:FHP:1,2014-10-02T00:42:00Z,28.1530,-82.8010,,29.658,1111122 
COMPS,ioos:station:USF.COMPS:FHP:1,2014-10-02T00:48:00Z,28.1530,-82.8010,,28.898,1111122 
COMPS,ioos:station:USF.COMPS:FHP:1,2014-10-02T00:54:00Z,28.1530,-82.8010,,28.189,1111122 
COMPS,ioos:station:USF.COMPS:FHP:1,2014-10-02T01:00:00Z,28.1530,-82.8010,,29.03,1111122 
COMPS,ioos:station:USF.COMPS:FHP:1,2014-10-02T01:06:00Z,28.1530,-82.8010,,28.288,1111122 
COMPS,ioos:station:USF.COMPS:FHP:1,2014-10-02T01:12:00Z,28.1530,-82.8010,,27.752,1111122 
COMPS,ioos:station:USF.COMPS:FHP:1,2014-10-02T01:18:00Z,28.1530,-82.8010,,26.895,1111122 
COMPS,ioos:station:USF.COMPS:FHP:1,2014-10-02T01:24:00Z,28.1530,-82.8010,,26.166,1111122 
COMPS,ioos:station:USF.COMPS:FHP:1,2014-10-02T01:30:00Z,28.1530,-82.8010,,25.408,1111122 
COMPS,ioos:station:USF.COMPS:FHP:1,2014-10-02T01:36:00Z,28.1530,-82.8010,,24.353,1111122 
COMPS,ioos:station:USF.COMPS:FHP:1,2014-10-02T01:42:00Z,28.1530,-82.8010,,24.909,1111122 
COMPS,ioos:station:USF.COMPS:FHP:1,2014-10-02T01:48:00Z,28.1530,-82.8010,,24.724,1111122 
COMPS,ioos:station:USF.COMPS:FHP:1,2014-10-02T01:54:00Z,28.1530,-82.8010,,24.59,1111122 
COMPS,ioos:station:USF.COMPS:FHP:1,2014-10-02T02:00:00Z,28.1530,-82.8010,,24.442,1111122 
COMPS,ioos:station:USF.COMPS:FHP:1,2014-10-02T02:06:00Z,28.1530,-82.8010,,23.776,1111122 
COMPS,ioos:station:USF.COMPS:FHP:1,2014-10-02T02:12:00Z,28.1530,-82.8010,,24.271,1111122 
COMPS,ioos:station:USF.COMPS:FHP:1,2014-10-02T02:18:00Z,28.1530,-82.8010,,24.085,1111122 
COMPS,ioos:station:USF.COMPS:FHP:1,2014-10-02T02:24:00Z,28.1530,-82.8010,,24.077,1111122 
COMPS,ioos:station:USF.COMPS:FHP:1,2014-10-02T02:30:00Z,28.1530,-82.8010,,24.046,1111122 
COMPS,ioos:station:USF.COMPS:FHP:1,2014-10-02T02:36:00Z,28.1530,-82.8010,,23.916,1111122 
COMPS,ioos:station:USF.COMPS:FHP:1,2014-10-02T02:42:00Z,28.1530,-82.8010,,23.858,1111122 
COMPS,ioos:station:USF.COMPS:FHP:1,2014-10-02T02:48:00Z,28.1530,-82.8010,,23.911,1111122 
COMPS,ioos:station:USF.COMPS:FHP:1,2014-10-02T02:54:00Z,28.1530,-82.8010,,23.7,1111122 
COMPS,ioos:station:USF.COMPS:FHP:1,2014-10-02T03:00:00Z,28.1530,-82.8010,,23.535,1111122 
COMPS,ioos:station:USF.COMPS:FHP:1,2014-10-02T03:06:00Z,28.1530,-82.8010,,23.509,1111122 
COMPS,ioos:station:USF.COMPS:FHP:1,2014-10-02T03:12:00Z,28.1530,-82.8010,,23.421,1111122 
COMPS,ioos:station:USF.COMPS:FHP:1,2014-10-02T03:18:00Z,28.1530,-82.8010,,23.454,1111122 
COMPS,ioos:station:USF.COMPS:FHP:1,2014-10-02T03:24:00Z,28.1530,-82.8010,,23.579,1111122 
COMPS,ioos:station:USF.COMPS:FHP:1,2014-10-02T03:30:00Z,28.1530,-82.8010,,23.579,1111122 
COMPS,ioos:station:USF.COMPS:FHP:1,2014-10-02T03:36:00Z,28.1530,-82.8010,,23.552,1111122 
COMPS,ioos:station:USF.COMPS:FHP:1,2014-10-02T03:42:00Z,28.1530,-82.8010,,23.58,1111122 
COMPS,ioos:station:USF.COMPS:FHP:1,2014-10-02T03:48:00Z,28.1530,-82.8010,,23.644,1111122 
COMPS,ioos:station:USF.COMPS:FHP:1,2014-10-02T03:54:00Z,28.1530,-82.8010,,23.624,1111122 
COMPS,ioos:station:USF.COMPS:FHP:1,2014-10-02T04:00:00Z,28.1530,-82.8010,,23.613,1111122 
COMPS,ioos:station:USF.COMPS:FHP:1,2014-10-02T04:06:00Z,28.1530,-82.8010,,23.637,1111122 
COMPS,ioos:station:USF.COMPS:FHP:1,2014-10-02T04:12:00Z,28.1530,-82.8010,,23.68,1111122 
COMPS,ioos:station:USF.COMPS:FHP:1,2014-10-02T04:18:00Z,28.1530,-82.8010,,23.707,1111122 
COMPS,ioos:station:USF.COMPS:FHP:1,2014-10-02T04:24:00Z,28.1530,-82.8010,,23.755,1111122 
COMPS,ioos:station:USF.COMPS:FHP:1,2014-10-02T04:30:00Z,28.1530,-82.8010,,24.004,1111122 
COMPS,ioos:station:USF.COMPS:FHP:1,2014-10-02T04:36:00Z,28.1530,-82.8010,,24.12,1111122 
COMPS,ioos:station:USF.COMPS:FHP:1,2014-10-02T04:42:00Z,28.1530,-82.8010,,24.216,1111122 
COMPS,ioos:station:USF.COMPS:FHP:1,2014-10-02T04:48:00Z,28.1530,-82.8010,,24.239,1111122 
COMPS,ioos:station:USF.COMPS:FHP:1,2014-10-02T04:54:00Z,28.1530,-82.8010,,24.238,1111122 
COMPS,ioos:station:USF.COMPS:FHP:1,2014-10-02T05:00:00Z,28.1530,-82.8010,,24.179,1111122 